• In Lithuania
  • List of Countries
  • For 7 days
  • Water Temperature
  • Satellite Maps
  • Weather Map
  • Weather Widgets
  • user-avatar
    Login

    Hourly Weather Sydney

    Today, 23 August, Wednesday

    Time Temperature Precipitation Wind Pressure Humidity
    00:00 +9°C° 0 mm 2 mps 764 mmHg 81%
    01:00 +9°C° 0 mm 2 mps 764 mmHg 84%
    02:00 +9°C° 0 mm 2 mps 764 mmHg 84%
    03:00 +8°C° 0 mm 2 mps 764 mmHg 85%
    04:00 +8°C° 0 mm 2 mps 764 mmHg 86%
    05:00 +8°C° 0 mm 2 mps 764 mmHg 85%
    06:00 +8°C° 0 mm 2 mps 764 mmHg 84%
    07:00 +8°C° 0 mm 2 mps 764 mmHg 82%
    08:00 +12°C° 0 mm 2 mps 764 mmHg 71%
    09:00 +16°C° 0 mm 2 mps 763 mmHg 59%
    10:00 +20°C° 0 mm 2 mps 763 mmHg 44%
    11:00 +21°C° 0 mm 2 mps 763 mmHg 40%
    12:00 +24°C° 0 mm 3 mps 762 mmHg 35%
    13:00 +25°C° 0 mm 3 mps 761 mmHg 31%
    14:00 +25°C° 0 mm 3 mps 761 mmHg 33%
    15:00 +23°C° 0 mm 4 mps 761 mmHg 34%
    16:00 +23°C° 0 mm 4 mps 760 mmHg 36%
    17:00 +21°C° 0.1 mm 4 mps 761 mmHg 48%
    18:00 +18°C° 0.1 mm 3 mps 761 mmHg 59%
    19:00 +16°C° 0.1 mm 3 mps 761 mmHg 70%
    20:00 +16°C° 0.2 mm 3 mps 761 mmHg 69%
    21:00 +14°C° 0.2 mm 3 mps 761 mmHg 68%
    22:00 +13°C° 0.2 mm 4 mps 762 mmHg 67%
    23:00 +12°C° 0 mm 4 mps 762 mmHg 67%

    Tomorrow, 24 August, Thursday

    Time Temperature Precipitation Wind Pressure Humidity
    00:00 +10°C° 0 mm 5 mps 762 mmHg 68%
    01:00 +10°C° 0 mm 5 mps 761 mmHg 69%
    02:00 +9°C° 0 mm 5 mps 761 mmHg 69%
    03:00 +9°C° 0 mm 5 mps 761 mmHg 70%
    04:00 +8°C° 0 mm 5 mps 761 mmHg 71%
    05:00 +8°C° 0 mm 5 mps 762 mmHg 70%
    06:00 +8°C° 0 mm 5 mps 762 mmHg 69%
    07:00 +8°C° 0 mm 5 mps 762 mmHg 68%
    08:00 +10°C° 0.1 mm 6 mps 762 mmHg 62%
    09:00 +14°C° 0.1 mm 6 mps 762 mmHg 56%
    10:00 +16°C° 0.1 mm 7 mps 762 mmHg 50%
    11:00 +17°C° 0.1 mm 7 mps 762 mmHg 48%
    12:00 +17°C° 0.1 mm 7 mps 762 mmHg 47%
    13:00 +18°C° 0.1 mm 8 mps 761 mmHg 45%
    14:00 +17°C° 0.2 mm 8 mps 761 mmHg 50%
    15:00 +16°C° 0.2 mm 8 mps 761 mmHg 55%
    16:00 +15°C° 0.2 mm 8 mps 762 mmHg 61%
    17:00 +13°C° 0.1 mm 8 mps 762 mmHg 63%
    18:00 +12°C° 0.1 mm 7 mps 763 mmHg 65%
    19:00 +11°C° 0.1 mm 7 mps 764 mmHg 68%
    20:00 +11°C° 0.2 mm 7 mps 764 mmHg 69%
    21:00 +11°C° 0.2 mm 7 mps 764 mmHg 71%
    22:00 +10°C° 0.2 mm 7 mps 765 mmHg 73%
    23:00 +10°C° 0.2 mm 7 mps 765 mmHg 74%

    Day after tomorrow, 25 August, Friday

    Time Temperature Precipitation Wind Pressure Humidity
    00:00 +9°C° 0.2 mm 7 mps 765 mmHg 76%
    01:00 +9°C° 0.2 mm 7 mps 765 mmHg 77%
    02:00 +9°C° 0.4 mm 7 mps 765 mmHg 76%
    03:00 +8°C° 0.4 mm 7 mps 765 mmHg 75%
    04:00 +8°C° 0.4 mm 7 mps 765 mmHg 74%
    05:00 +8°C° 0.4 mm 7 mps 766 mmHg 73%
    06:00 +6°C° 0.4 mm 7 mps 766 mmHg 71%
    07:00 +7°C° 0.4 mm 6 mps 767 mmHg 70%
    08:00 +9°C° 0.3 mm 6 mps 767 mmHg 63%
    09:00 +11°C° 0.3 mm 6 mps 767 mmHg 57%
    10:00 +14°C° 0.3 mm 6 mps 767 mmHg 51%
    11:00 +15°C° 0.2 mm 6 mps 767 mmHg 48%
    12:00 +16°C° 0.2 mm 6 mps 767 mmHg 45%
    13:00 +17°C° 0.2 mm 6 mps 766 mmHg 42%
    14:00 +17°C° 0.1 mm 6 mps 766 mmHg 43%
    15:00 +17°C° 0.1 mm 6 mps 766 mmHg 43%
    16:00 +17°C° 0.1 mm 5 mps 766 mmHg 43%
    17:00 +15°C° 0 mm 5 mps 766 mmHg 53%
    18:00 +13°C° 0 mm 5 mps 767 mmHg 63%
    19:00 +11°C° 0 mm 4 mps 767 mmHg 74%
    20:00 +10°C° 0 mm 4 mps 768 mmHg 76%
    21:00 +10°C° 0 mm 4 mps 768 mmHg 78%
    22:00 +8°C° 0 mm 4 mps 768 mmHg 80%
    23:00 +8°C° 0 mm 4 mps 768 mmHg 80%

    26 August, Saturday

    Time Temperature Precipitation Wind Pressure Humidity
    00:00 +8°C° 0 mm 3 mps 768 mmHg 80%
    01:00 +8°C° 0 mm 3 mps 768 mmHg 80%
    02:00 +8°C° 0 mm 3 mps 768 mmHg 79%
    03:00 +7°C° 0 mm 3 mps 768 mmHg 78%
    04:00 +7°C° 0 mm 3 mps 768 mmHg 77%
    05:00 +7°C° 0 mm 3 mps 768 mmHg 75%
    06:00 +7°C° 0 mm 3 mps 768 mmHg 74%
    07:00 +7°C° 0 mm 3 mps 769 mmHg 72%
    08:00 +10°C° 0 mm 3 mps 769 mmHg 61%
    09:00 +15°C° 0 mm 2 mps 768 mmHg 50%
    10:00 +18°C° 0 mm 2 mps 768 mmHg 39%
    11:00 +20°C° 0 mm 2 mps 768 mmHg 34%
    12:00 +22°C° 0 mm 1 mps 767 mmHg 30%
    13:00 +24°C° 0 mm 1 mps 767 mmHg 25%
    14:00 +23°C° 0 mm 2 mps 766 mmHg 27%
    15:00 +21°C° 0 mm 2 mps 766 mmHg 28%
    16:00 +20°C° 0 mm 3 mps 766 mmHg 29%
    17:00 +18°C° 0 mm 3 mps 766 mmHg 41%
    18:00 +16°C° 0 mm 3 mps 767 mmHg 53%
    19:00 +12°C° 0 mm 3 mps 767 mmHg 65%
    20:00 +13°C° 0 mm 2 mps 768 mmHg 68%
    21:00 +12°C° 0 mm 1 mps 768 mmHg 71%
    22:00 +11°C° 0 mm 1 mps 769 mmHg 75%
    23:00 +11°C° 0 mm 1 mps 768 mmHg 75%

    27 August, Sunday

    Time Temperature Precipitation Wind Pressure Humidity
    00:00 +9°C° 0 mm 2 mps 768 mmHg 76%
    01:00 +9°C° 0 mm 2 mps 768 mmHg 77%
    02:00 +9°C° 0 mm 3 mps 768 mmHg 76%
    03:00 +8°C° 0 mm 3 mps 768 mmHg 76%
    04:00 +8°C° 0 mm 3 mps 768 mmHg 75%
    05:00 +8°C° 0 mm 3 mps 768 mmHg 75%
    06:00 +8°C° 0 mm 3 mps 768 mmHg 75%
    07:00 +8°C° 0 mm 3 mps 769 mmHg 75%
    08:00 +11°C° 0 mm 3 mps 769 mmHg 66%
    09:00 +14°C° 0 mm 3 mps 769 mmHg 57%
    10:00 +18°C° 0 mm 3 mps 769 mmHg 49%
    11:00 +19°C° 0 mm 3 mps 768 mmHg 46%
    12:00 +20°C° 0 mm 4 mps 768 mmHg 43%
    13:00 +20°C° 0 mm 4 mps 767 mmHg 41%
    14:00 +19°C° 0 mm 4 mps 767 mmHg 46%
    15:00 +19°C° 0 mm 5 mps 767 mmHg 52%
    16:00 +17°C° 0 mm 5 mps 767 mmHg 57%
    17:00 +15°C° 0.1 mm 5 mps 768 mmHg 65%
    18:00 +14°C° 0.1 mm 5 mps 768 mmHg 74%
    19:00 +12°C° 0.1 mm 4 mps 769 mmHg 82%
    20:00 +12°C° 0 mm 4 mps 769 mmHg 83%
    21:00 +11°C° 0 mm 4 mps 769 mmHg 84%
    22:00 +11°C° 0 mm 3 mps 769 mmHg 85%
    23:00 +11°C° 0.1 mm 3 mps 769 mmHg 86%

    28 August, Monday

    Time Temperature Precipitation Wind Pressure Humidity
    00:00 +10°C° 0.1 mm 3 mps 769 mmHg 87%
    01:00 +10°C° 0.1 mm 3 mps 768 mmHg 88%
    02:00 +8°C° 0 mm 4 mps 768 mmHg 88%
    03:00 +8°C° 0 mm 4 mps 768 mmHg 88%
    04:00 +8°C° 0 mm 4 mps 768 mmHg 88%
    05:00 +8°C° 0 mm 4 mps 768 mmHg 86%
    06:00 +8°C° 0 mm 4 mps 768 mmHg 85%
    07:00 +7°C° 0 mm 4 mps 769 mmHg 83%
    08:00 +11°C° 0 mm 4 mps 769 mmHg 72%
    09:00 +14°C° 0 mm 4 mps 768 mmHg 61%
    10:00 +17°C° 0 mm 4 mps 768 mmHg 50%
    11:00 +19°C° 0 mm 4 mps 768 mmHg 46%
    12:00 +20°C° 0 mm 4 mps 767 mmHg 41%
    13:00 +21°C° 0 mm 4 mps 766 mmHg 37%
    14:00 +20°C° 0 mm 4 mps 766 mmHg 41%
    15:00 +20°C° 0 mm 4 mps 766 mmHg 45%
    16:00 +19°C° 0 mm 4 mps 766 mmHg 49%
    17:00 +17°C° 0 mm 4 mps 766 mmHg 60%
    18:00 +14°C° 0 mm 3 mps 767 mmHg 71%
    19:00 +12°C° 0 mm 3 mps 767 mmHg 82%
    20:00 +13°C° 0 mm 2 mps 767 mmHg 85%
    21:00 +12°C° 0 mm 2 mps 767 mmHg 89%
    22:00 +10°C° 0 mm 2 mps 767 mmHg 92%
    23:00 +10°C° 0.1 mm 2 mps 767 mmHg 93%
    Show more